Location: Long Island Community Building
(39.9491°N, 99.5338°W)
Time: 07:59:17
(UTC+00:00)

AQUARIUS - Pass Details

Date: 06 December 2019
Orbit: 650 x 653 km, 98.0° (Epoch: 28 January)

Event Time Altitude Azimuth Distance (km) Brightness Sun altitude
Rises 23:48:12 0° 155° (SSE) 2,960 7.5 -6.9°
Reaches altitude 10° 23:50:26 10° 151° (SSE) 2,053 6.7 -7.3°
Maximum altitude 23:54:48 55° 74° (ENE) 787 4.3 -8.1°
Drops below altitude 10° 23:59:13 10° 357° (N) 2,068 6.6 -8.8°
Sets 00:01:28 0° 353° (N) 2,984 7.4 -9.2°
